KE9LZ Weather Reports


Display with metric or nautical units.
time (UTC)temp
F
wind
direction
speed
MPH
gust
MPH
rain 1hr
in
rain 24hr
in
rain mn
in
humidity
%
barometer
mb
20260506005003 48 321 6.0 17.0 0.00 0.00 0.00 41 1014.4
20260506004003 48 297 8.0 25.0 0.00 0.00 0.00 40 1014.5
20260506003004 48 294 13.0 24.0 0.00 0.00 0.00 39 1014.3
20260506002003 49 301 9.0 22.0 0.00 0.00 0.00 39 1014.2
20260506001002 49 319 6.0 29.0 0.00 0.00 0.00 39 1014.3
20260506000002 50 305 12.0 29.0 0.00 0.00 0.00 38 1014.1
20260505235003 50 303 7.0 23.0 0.00 0.00 0.00 38 1014.1
20260505234003 50 320 12.0 23.0 0.00 0.00 0.00 38 1014.2
20260505233003 50 319 11.0 28.0 0.00 0.00 0.00 37 1014.2
20260505232003 51 299 14.0 20.0 0.00 0.00 0.00 37 1014.3
20260505230002 51 289 14.0 30.0 0.00 0.00 0.00 37 1014.1
20260505225003 52 273 14.0 26.0 0.00 0.00 0.00 36 1013.7
20260505224003 51 286 9.0 28.0 0.00 0.00 0.00 36 1013.7
20260505223003 52 303 14.0 28.0 0.00 0.00 0.00 36 1013.7
20260505221003 52 319 14.0 28.0 0.00 0.00 0.00 36 1013.5
20260505220003 52 292 19.0 28.0 0.00 0.00 0.00 36 1013.5
20260505215003 53 275 11.0 25.0 0.00 0.00 0.00 34 1013.5
20260505214003 52 299 16.0 29.0 0.00 0.00 0.00 34 1013.7
20260505213002 53 300 13.0 23.0 0.00 0.00 0.00 37 1013.4
20260505212004 52 299 11.0 26.0 0.00 0.00 0.00 37 1013.3
20260505211003 51 280 10.0 25.0 0.00 0.00 0.00 36 1013.3
20260505210003 54 274 10.0 24.0 0.00 0.00 0.00 36 1013.1
20260505205003 52 278 10.0 29.0 0.00 0.00 0.00 36 1013.0
20260505204002 53 297 13.0 25.0 0.00 0.00 0.00 38 1013.3
20260505203003 52 247 10.0 23.0 0.00 0.00 0.00 37 1013.1
20260505202004 55 240 7.0 24.0 0.00 0.00 0.00 34 1013.3
20260505200003 53 259 8.0 23.0 0.00 0.00 0.00 37 1013.2
20260505195003 52 286 11.0 30.0 0.00 0.00 0.00 37 1013.3
20260505194003 53 297 15.0 30.0 0.00 0.00 0.00 39 1013.0
20260505193003 53 275 8.0 23.0 0.00 0.00 0.00 38 1012.8
20260505192003 52 290 10.0 28.0 0.00 0.00 0.00 38 1012.8
20260505191002 53 281 11.0 22.0 0.00 0.00 0.00 37 1012.7
20260505190003 54 257 5.0 23.0 0.00 0.00 0.00 37 1012.6
20260505185003 54 287 9.0 21.0 0.00 0.00 0.00 36 1012.8
20260505184002 53 279 15.0 22.0 0.00 0.00 0.00 36 1012.7
20260505183004 54 282 12.0 30.0 0.00 0.00 0.00 34 1012.3
20260505182003 52 299 13.0 26.0 0.00 0.00 0.00 36 1012.5
20260505180003 54 234 8.0 16.0 0.00 0.00 0.00 34 1012.3
20260505175003 53 232 9.0 24.0 0.00 0.00 0.00 34 1012.4
20260505174003 52 264 10.0 21.0 0.00 0.00 0.00 36 1012.3
20260505172003 52 262 9.0 22.0 0.00 0.00 0.00 40 1012.4
20260505171003 51 290 12.0 21.0 0.00 0.00 0.00 38 1012.1
20260505170003 51 223 5.0 15.0 0.00 0.00 0.00 43 1012.0
20260505165002 50 269 9.0 23.0 0.00 0.00 0.00 44 1011.9
20260505164003 51 286 7.0 20.0 0.00 0.00 0.00 43 1011.9
20260505163003 50 242 6.0 23.0 0.00 0.00 0.00 44 1012.0
20260505162002 50 220 6.0 25.0 0.00 0.00 0.00 44 1012.0
20260505161003 50 292 10.0 21.0 0.00 0.00 0.00 45 1011.8
20260505153003 49 284 9.0 20.0 0.00 0.00 0.00 46 1011.8
20260505152002 50 266 9.0 21.0 0.00 0.00 0.00 46 1012.0
20260505151003 49 318 6.0 23.0 0.00 0.00 0.00 46 1012.1
20260505125003 46 216 5.0 13.0 0.00 0.00 0.00 53 1011.8
20260505124003 46 254 3.0 15.0 0.00 0.00 0.00 53 1011.3
20260505123003 45 247 3.0 12.0 0.00 0.00 0.00 53 1011.1
20260505122003 45 217 5.0 10.0 0.00 0.00 0.00 53 1011.0
20260505121003 44 281 3.0 9.0 0.00 0.00 0.00 54 1011.1
20260505115003 43 264 3.0 10.0 0.00 0.00 0.00 57 1010.8
20260505113003 41 336 3.0 7.0 0.00 0.00 0.00 59 1010.8
20260505112003 41 136 1.0 5.0 0.00 0.00 0.00 60 1010.6
20260505111003 40 110 3.0 5.0 0.00 0.00 0.00 61 1010.5
20260505102004 41 182 2.0 3.0 0.00 0.00 0.00 59 1009.9
20260505101003 41 178 1.0 5.0 0.00 0.00 0.00 57 1009.7
20260505100003 41 166 2.0 5.0 0.00 0.00 0.00 55 1009.6
20260505095003 41 153 2.0 5.0 0.00 0.00 0.00 55 1009.8
20260505094003 41 148 1.0 3.0 0.00 0.00 0.00 56 1009.4
20260505093003 41 140 1.0 3.0 0.00 0.00 0.00 55 1009.3
20260505092003 41 145 2.0 3.0 0.00 0.00 0.00 53 1009.1
20260505090003 42 157 2.0 3.0 0.00 0.00 0.00 51 1008.7
20260505085003 43 150 1.0 3.0 0.00 0.00 0.00 49 1008.4
20260505084004 44 317 2.0 5.0 0.00 0.00 0.00 48 1008.1
20260505082003 44 36 2.0 7.0 0.00 0.00 0.00 48 1008.3
20260505080003 45 296 6.0 16.0 0.00 0.00 0.00 44 1008.1
20260505075003 45 293 7.0 21.0 0.00 0.00 0.00 44 1008.0
20260505073003 46 296 12.0 22.0 0.00 0.00 0.00 42 1008.0
20260505072003 46 286 9.0 18.0 0.00 0.00 0.00 43 1007.6
20260505071003 46 294 10.0 26.0 0.00 0.00 0.00 42 1007.9
20260505070003 47 314 9.0 22.0 0.00 0.00 0.00 46 1007.8
20260505065003 47 324 11.0 21.0 0.00 0.00 0.00 46 1007.4
20260505064003 48 308 10.0 18.0 0.00 0.00 0.00 47 1007.4
20260505062003 49 301 13.0 21.0 0.00 0.00 0.00 47 1007.2
20260505061003 49 301 13.0 30.0 0.00 0.00 0.00 47 1006.9
20260505060003 50 300 10.0 25.0 0.00 0.00 0.00 48 1006.9
20260505055003 50 308 7.0 21.0 0.00 0.00 0.00 47 1006.7
20260505054003 51 310 7.0 18.0 0.00 0.00 0.00 48 1006.4
20260505052002 52 318 12.0 22.0 0.00 0.00 0.00 47 1006.1
20260505051003 52 308 9.0 24.0 0.00 0.00 0.00 46 1006.0
20260505041003 56 350 5.0 16.0 0.00 0.00 0.00 43 1004.6
20260505040003 57 312 10.0 18.0 0.00 0.00 0.00 41 1004.4
20260505035003 57 297 9.0 16.0 0.00 0.00 0.00 40 1003.9
20260505034003 57 302 6.0 16.0 0.00 0.00 0.00 41 1003.5
20260505033003 57 307 9.0 17.0 0.00 0.00 0.00 40 1003.3
20260505031004 58 304 9.0 21.0 0.00 0.00 0.00 41 1002.5
20260505030004 58 298 13.0 30.0 0.00 0.00 0.00 41 1002.5
20260505025004 59 303 13.0 26.0 0.00 0.00 0.00 38 1002.2
20260505023003 60 301 14.0 28.0 0.00 0.00 0.00 36 1002.0
20260505022003 60 293 7.0 25.0 0.00 0.00 0.00 37 1001.9
20260505021004 61 286 13.0 29.0 0.00 0.00 0.00 35 1001.4
20260505020003 61 303 5.0 20.0 0.00 0.00 0.00 37 1001.1
20260505015003 62 297 15.0 21.0 0.00 0.00 0.00 36 1000.8
20260505014003 63 299 9.0 24.0 0.00 0.00 0.00 38 1000.8
20260505013003 63 254 5.0 18.0 0.00 0.00 0.00 37 1000.5
20260505012003 64 282 10.0 29.0 0.00 0.00 0.00 35 1000.3
20260505011003 64 288 10.0 17.0 0.00 0.00 0.00 35 1000.2